{"data":{"norad_id":46353,"epoch":"2026-09-16T01:48:11.642400Z","epoch_age_seconds":404320,"freshness":"STALE","line1":"1 46353U 20062AE  26259.07513475  .10983178  12446-4  39040-3 0  9994","line2":"2 46353  53.0190 132.8865 0008797 262.3899  97.6149 16.43705913334526","mean_motion":16.43705913,"eccentricity":0.0008797,"inclination_deg":53.019,"raan_deg":132.8865,"arg_perigee_deg":262.3899,"mean_anomaly_deg":97.6149,"bstar":0.0003904,"rev_number":33452,"period_min":87.606912441642,"perigee_km":150.21474530684,"apogee_km":161.71084048246,"semimajor_km":6534.0997928946,"source":"CELESTRAK","updated_at":"2026-09-16T09:01:28.261235Z"}}